Regional Weather Roundup
Issued by NWS

Home | Current Version | Previous Version | Text Only | Print | Product List | Glossary Off
Versions: 1 2 3 4 5 6 7 8 9 10 11 12 13 14 15 16 17 18 19 20 21 22 23 24 25 26 27 28 29 30 31 32 33 34 35 36 37 38 39 40 41 42 43 44 45 46 47 48 49 50

000
ASUS45 KBOU 291007
RWRCO

WEATHER ROUNDUP FOR COLORADO
NATIONAL WEATHER SERVICE DENVER/BOULDER CO
400 AM MDT SAT AUG 29 2015

NOTE: "FAIR" INDICATES FEW OR NO CLOUDS BELOW 12000 FEET WITH NO
SIGNIFICANT WEATHER AND/OR OBSTRUCTIONS TO VISIBILITY.

COZ001>005-013-030-031-291100-
...NORTHWEST COLORADO...

CITY           SKY/WX    TMP DP  RH WIND       PRES   REMARKS
CRAIG          CLEAR     46  41  82 CALM      30.31S
HAYDEN         NOT AVBL
MEEKER         CLEAR     47  40  76 NE5       30.32S
MOUNT WERNER   NOT AVBL
STEAMBOAT SPGS CLEAR     46  42  85 CALM      30.36F
WALDEN         CLEAR     37  34  87 SE7       30.45F
$$

COZ006>008-011-291100-
...WEST CENTRAL VALLEYS...

CITY           SKY/WX    TMP DP  RH WIND       PRES   REMARKS
GRAND JUNCTION CLEAR     61  45  55 SE10      30.19R
MONTROSE       PTCLDY    57  45  64 S5        30.28R
EAGLE          CLEAR     48  43  81 CALM      30.41R
RIFLE          CLEAR     53  45  74 SE5       30.27R
DELTA          CLEAR     58  51  79 CALM      30.23S
NUCLA          PTCLDY    59  41  51 E7        30.29R
$$

COZ017>023-064>068-291100-
...SOUTHWEST COLORADO...

CITY           SKY/WX    TMP DP  RH WIND       PRES   REMARKS
DURANGO        CLEAR     55  45  68 E9        30.34R
CORTEZ         CLEAR     51  43  74 NE3       30.25R
PAGOSA SPRINGS PTCLDY    54  42  62 CALM      30.43R
TELLURIDE      CLEAR     53  40  59 SE7       30.50S
WOLF CREEK PAS CLOUDY    43  37  81 CALM      30.74R
$$

COZ009-010-012-014-032>034-037-058>063-291100-
...CENTRAL COLORADO...

CITY           SKY/WX    TMP DP  RH WIND       PRES   REMARKS
ASPEN          CLEAR     48  41  76 CALM      30.42R
BUENA VISTA    CLEAR     51  40  66 NW9       30.49S
COPPER MTN     CLEAR     48  34  57 S21       30.71S
BERTHOUD PASS  FAIR      39  28  65 MISG      30.76S
COTTONWOOD PAS CLEAR     54  37  54 W6        30.60S
GUNNISON       CLEAR     48  39  71 CALM      30.47S
KREMMLING      CLEAR     41  37  87 CALM      30.46S
LEADVILLE      CLEAR     39  36  89 NE6       30.58S
MONARCH PASS   CLEAR     43  36  75 E9        30.82R
SALIDA         CLEAR     53  43  69 SW6       30.53S
SUNLIGHT       CLEAR     50  37  62 E5        30.64S
WILKERSON PASS CLEAR     45  36  70 SW8       30.70F
$$

COZ069>075-291100-
...SAN LUIS VALLEY/SANGRE DE CRISTO MOUNTAINS...

CITY           SKY/WX    TMP DP  RH WIND       PRES   REMARKS
ALAMOSA        CLEAR     52  42  69 SW8       30.42S
LA VETA PASS   PTCLDY    46  36  66 NE5       30.60F
SAGUACHE       CLEAR     48  41  76 NW7       30.46S
$$

COZ035-036-038>040-291100-
...NORTHERN COLORADO FRONT RANGE...

CITY           SKY/WX    TMP DP  RH WIND       PRES   REMARKS
DENVER INTL AP PTCLDY    62  40  44 SW10      30.27S
DMNS CITY PARK   N/A     61  46  57 E10       30.27S
AURORA         CLEAR     58  41  53 S8        30.29F
FRONT RANGE AP NOT AVBL
ERIE MUNI ARPT CLEAR     54  48  81 CALM      30.26R
BOULDER MUN AP CLEAR     64  43  45 CALM      30.26S
CENTENNIAL     PTCLDY    56  42  59 S7        30.30F
BROOMFIELD     CLEAR     61  41  48 W3        30.29S
FORT COLLINS   CLEAR     59  46  63 N3        30.26S
LONGMONT       CLEAR     57  48  72 CALM      30.27R
$$

COZ041-046-047-076>085-087-088-291100-
...PIKES PEAK/PALMER DIVIDE AND SOUTHERN FOOTHILLS...

CITY           SKY/WX    TMP DP  RH WIND       PRES   REMARKS
COLO. SPRINGS  PTCLDY    56  42  59 E6        30.35F
A. F. ACADEMY  CLEAR     51  43  75 N9        30.37S
ELLICOTT       CLEAR    N/A N/A N/A CALM      30.34S
FALCON         CLEAR     55  40  57 MISG      30.40S
FORT CARSON    CLEAR     56  46  70 NW9       30.32F
LIMON          CLEAR     46  43  89 NW6       30.29S
MONUMENT HILL  CLEAR     50  39  66 S9        30.39S
TRINIDAD       CLEAR     59  48  67 W10       30.31R
$$

COZ042>045-048>051-090-091-291100-
...NORTHEAST COLORADO...

CITY           SKY/WX    TMP DP  RH WIND       PRES   REMARKS
GREELEY ARPT   CLEAR     52  46  82 NW6       30.24S
AKRON          CLEAR     61  48  62 S10       30.22S
BURLINGTON     CLEAR     54  50  86 SW7       30.21S
WRAY           CLEAR     55  52  88 W3        30.17F
STERLING       CLEAR     54  46  76 S3        30.18S
HOLYOKE        CLEAR     55  52  88 SW3       30.17F
FORT MORGAN    CLEAR     51  46  83 W8        30.23S
$$

COZ086-089-092>099-291100-
...SOUTHEAST COLORADO...

CITY           SKY/WX    TMP DP  RH WIND       PRES   REMARKS
PUEBLO         CLEAR     63  44  50 CALM      30.25S
LA JUNTA       CLEAR     58  47  66 N5        30.21S
LAMAR          CLEAR     57  52  83 NW3       30.17S HAZE
SPRINGFIELD    NOT AVBL
$$




USA.gov is the U.S. government's official web portal to all federal, state and local government web resources and services.